Aérodrome :
LOGIN :

S'inscrire | Disclaimer

   EN    FR    IT 

 










Légende :    VFR   VFR Marginal   IFR   IFR Intensif   IFR Très Intensif
Visi : 
Plafond : 
>= 8 km
>= 3000ft
5 à 8 km
1000 à 3000 ft
1500m à 5 km
500 à 1000 ft
800 à 1500m
200 à 500 ft
< 800m
< 200 ft
Symboles :   Orages  Brouillard  Fortes neiges  Fortes précipitations  Vent > 20 kt
SIGMETs :   Divers  Orages  Givrage  Turbulence  Onde Orograph.  Cendres Volcan.







- Altitude de l'aérodrome : 236 ft
- Code IATA : MMX


ESMS - Malmö Sturup

DERNIER METAR :
  • 151720Z 14007KT CAVOK 13/09 Q1015

METARs EXPIRÉS :
  • 151650Z 13004KT CAVOK 13/09 Q1015
  • 151620Z 14005KT CAVOK 13/09 Q1015
  • 151550Z 14006KT CAVOK 14/10 Q1015
  • 151520Z 15006KT CAVOK 14/10 Q1015
  • 151450Z 15007KT CAVOK 15/10 Q1015

TAF TAF ESMS
Valide du 15 à 18h jusqu'au 16 à 18h UTC


151718Z 1518/1618 16005KT CAVOK
PROB40 1600/1606 2500 BR
Pas de NOTAMs connus pour ce terrain.



MET'MAP, la Météo Aéronautique d'un coup d'oeil ! - Copyright ORBIFLY Décembre 2007 - Disclaimer

ORBIFLY MET'MAP TEAM :

Programmation & Développement : Alexandra Zaïnal
Conception & Développement : Baudouin d'Aumeries
Co-Programmation & Développement : Marc-Olivier Méhu
Soutien technique & logistique : Manuel Goepfert

Contact : metmap@orbifly.com




SOURCES & CREDITS :

   NOAA